Current weather by "City, St" or "zip code"  
 

Current Conditions: Holloman Air Force Base, NM

Fair


72.0 F

Last Updated on Sep 18 2020, 9:58 am MDT
Humidity: 46%
Wind Speed: W 3.5 mph
Barometer 30.30 in
Dewpoint: 50.0 F
Visibility: 10.00 mi
Precip: --
Heat Index: NA
Wind Chill: NA
Current conditions at:

Holloman Air Force Base, NM (KHMN)

Lat: 32.85 Lon: 106.1

Local Radar Image active severe weather and emergency alerts image image weather storm and storm spotter reports image weather observation monitoring service image
Local
Radar
Active
Alerts
Storm Reports Obs
Monitoring

Sign-up For Email & Text Message Weather Alert Notification Services



Advertise Here

Observation History for Holloman Air Force Base, NM


Time Wind
(mph)
Vis
(mi)
Weather Precip (in) Temperature (F) Relative
Humidity
Wind
Chill
(F)
Heat
Index
(F)
Pressure
Air Dwpt altimeter
(in)
sea level
(mb)
Rmks
9:58 am MDT W 3.5 10.00 Fair -- 72.0 50.0 46% NA NA 30.30 1020.0
8:58 am MDT W 3.5 10.00 Fair -- 66.0 48.2 53% NA NA 30.29 1020.1
7:58 am MDT N 0.0 10.00 Fair -- 58.0 46.6 66% NA NA 30.28 1020.0
6:58 am MDT NE 4.6 10.00 Fair -- 54.0 43.9 68% 53 NA 30.26 1019.3
5:58 am MDT N 0.0 10.00 Fair -- 58.0 45.1 63% NA NA 30.25 1018.5
4:58 am MDT N 0.0 10.00 Fair -- 59.0 44.4 59% NA NA 30.23 1017.6
3:58 am MDT NE 8.1 10.00 Fair -- 58.0 44.2 59% 56 NA 30.23 1017.6
2:58 am MDT N 5.8 10.00 Fair -- 62.0 44.4 53% 62 NA 30.23 1017.4
1:58 am MDT W 4.6 10.00 Fair -- 64.0 44.1 49% NA NA 30.22 1017.0
12:58 am MDT W 9.2 10.00 Fair -- 63.0 45.0 52% 62 NA 30.22 1017.2
11:58 pm MDT NW 9.2 10.00 Fair -- 67.0 44.6 45% NA NA 30.22 1017.0
10:58 pm MDT NW 5.8 10.00 Fair -- 66.0 44.6 46% NA NA 30.21 1016.9
9:58 pm MDT E 4.6 10.00 Fair -- 73.0 44.2 36% NA NA 30.20 1016.3
8:58 pm MDT NE 8.1 10.00 Fair -- 70.0 46.0 43% NA NA 30.18 1016.3
7:58 pm MDT S 4.6 10.00 Fair -- 76.0 43.5 31% NA NA 30.16 1015.6
5:58 pm MDT SW 9.2 10.00 Fair -- 83.0 40.1 22% NA 81 30.15 1014.8
4:58 pm MDT W 9.2 10.00 Fair -- 84.0 42.1 23% NA 81 30.15 1014.8
3:58 pm MDT W 5.8 10.00 Fair -- 84.0 43.0 24% NA 81 30.16 1015.2
2:58 pm MDT W 10.4 10.00 Fair -- 83.0 43.5 25% NA 81 30.18 1015.9
1:58 pm MDT W 11.5 10.00 Fair -- 83.0 45.0 26% NA 81 30.21 1016.7
12:58 pm MDT W 8.1 10.00 Fair -- 81.0 46.0 29% NA 80 30.23 1017.4
11:58 am MDT W 4.6 10.00 Fair -- 79.0 48.6 34% NA NA 30.26 1018.2
10:58 am MDT NW 4.6 10.00 Fair -- 76.0 48.0 37% NA NA 30.28 1018.9

Regional Weather Observation


Alamogordo-White, NM (KALM)

Fair
72.0 F

Las Cruces, Las Cruces International Airport, NM (KLRU)

Fair
73.0 F

Sierra Blanca Regional Airport, NM (KSRR)

A Few Clouds
63.0 F

Truth Or Consequences, Truth Or Consequences Municipal Airport, NM (KTCS)

Fair
71.0 F

Socorro Municipal Airport, NM (KONM)

Fair
68.0 F

Deming Municipal Airport, NM (KDMN)

Fair
74.0 F